VHWPY YSSY-YMML

Flight info

Callsign VHWPY
Flight time N/A
Altitude 40000
Route WOL H65 LEECE Q29 ML
Aircraft CL60/M-SBDE1E2E3FGHIJ4J5J7M3RWXYZ/LB1V1D1

Departure

Time 2026-04-30 09:14
Airport Sydney Kingsford Smith International Airport (YSSY)

Arrival

Time N/A
Airport Melbourne Airport (YMML)
Time Latitude Longitude Altitude Speed Heading
2026-04-30 08:32 -33.93373 151.18945 27 ft 0 kts 279°
2026-04-30 09:03 -33.93373 151.18944 27 ft 1 kts 278°
2026-04-30 09:04 -33.93375 151.18927 27 ft 3 kts 248°
2026-04-30 09:04 -33.93397 151.18906 27 ft 4 kts 200°
2026-04-30 09:04 -33.93419 151.18895 27 ft 0 kts 202°
2026-04-30 09:04 -33.93452 151.18880 27 ft 7 kts 204°
2026-04-30 09:05 -33.93498 151.18860 27 ft 6 kts 194°
2026-04-30 09:05 -33.93556 151.18846 27 ft 10 kts 191°
2026-04-30 09:05 -33.93607 151.18780 27 ft 13 kts 254°
2026-04-30 09:05 -33.93635 151.18655 28 ft 17 kts 256°
2026-04-30 09:06 -33.93668 151.18515 27 ft 14 kts 251°
2026-04-30 09:06 -33.93694 151.18404 25 ft 4 kts 254°
2026-04-30 09:06 -33.93708 151.18339 24 ft 11 kts 257°
2026-04-30 09:06 -33.93735 151.18225 22 ft 17 kts 255°
2026-04-30 09:07 -33.93773 151.18065 17 ft 22 kts 254°
2026-04-30 09:07 -33.93812 151.17902 11 ft 14 kts 255°
2026-04-30 09:07 -33.93848 151.17783 8 ft 12 kts 217°
2026-04-30 09:07 -33.93940 151.17790 10 ft 14 kts 168°
2026-04-30 09:08 -33.94051 151.17818 11 ft 18 kts 166°
2026-04-30 09:08 -33.94179 151.17850 15 ft 19 kts 168°
2026-04-30 09:08 -33.94311 151.17886 20 ft 19 kts 169°
2026-04-30 09:08 -33.94437 151.17915 24 ft 12 kts 178°
2026-04-30 09:09 -33.94530 151.17883 24 ft 14 kts 166°
2026-04-30 09:09 -33.94639 151.17914 25 ft 17 kts 169°
2026-04-30 09:09 -33.94768 151.17947 26 ft 20 kts 167°
2026-04-30 09:09 -33.94899 151.17986 25 ft 20 kts 169°
2026-04-30 09:10 -33.95001 151.18007 24 ft 15 kts 170°
2026-04-30 09:10 -33.95106 151.18018 20 ft 16 kts 201°
2026-04-30 09:10 -33.95136 151.17932 18 ft 11 kts 263°
2026-04-30 09:10 -33.95140 151.17900 18 ft 3 kts 262°
2026-04-30 09:11 -33.95143 151.17871 18 ft 0 kts 261°
2026-04-30 09:11 -33.95145 151.17865 18 ft 0 kts 259°
2026-04-30 09:13 -33.95145 151.17864 18 ft 0 kts 259°
2026-04-30 09:13 -33.95157 151.17787 18 ft 12 kts 262°
2026-04-30 09:14 -33.95099 151.17714 17 ft 16 kts 348°
2026-04-30 09:14 -33.94739 151.17625 22 ft 99 kts 348°
2026-04-30 09:14 -33.93804 151.17387 235 ft 163 kts 352°
2026-04-30 09:14 -33.92610 151.17041 931 ft 184 kts 348°
2026-04-30 09:15 -33.91417 151.16635 1782 ft 188 kts 340°
2026-04-30 09:15 -33.90429 151.15515 2715 ft 212 kts 307°
2026-04-30 09:15 -33.89643 151.14032 3815 ft 218 kts 305°
2026-04-30 09:15 -33.88820 151.12488 4761 ft 226 kts 305°
2026-04-30 09:16 -33.87970 151.10889 5211 ft 227 kts 304°
2026-04-30 09:16 -33.87132 151.09302 5361 ft 228 kts 304°
2026-04-30 09:16 -33.86257 151.07655 5367 ft 234 kts 304°
2026-04-30 09:16 -33.85376 151.06001 5363 ft 235 kts 304°
2026-04-30 09:17 -33.84494 151.04344 5369 ft 241 kts 304°
2026-04-30 09:17 -33.83544 151.02560 6103 ft 264 kts 303°
2026-04-30 09:17 -33.82911 151.00619 7722 ft 258 kts 278°
2026-04-30 09:17 -33.83092 150.98442 8732 ft 278 kts 250°
2026-04-30 09:18 -33.84202 150.96553 9870 ft 288 kts 218°
2026-04-30 09:18 -33.86023 150.95625 11070 ft 294 kts 185°
2026-04-30 09:18 -33.88070 150.95778 12198 ft 302 kts 170°
2026-04-30 09:18 -33.90138 150.96159 13361 ft 308 kts 170°
2026-04-30 09:19 -33.92238 150.96549 14492 ft 313 kts 170°
2026-04-30 09:19 -33.94375 150.96921 15643 ft 315 kts 171°
2026-04-30 09:19 -33.96536 150.97276 16739 ft 317 kts 172°
2026-04-30 09:19 -33.98741 150.97494 17787 ft 320 kts 183°
2026-04-30 09:20 -34.00922 150.96970 18760 ft 323 kts 194°
2026-04-30 09:20 -34.03081 150.96265 19656 ft 328 kts 194°
2026-04-30 09:20 -34.05280 150.95557 20511 ft 332 kts 194°
2026-04-30 09:20 -34.07527 150.94833 21354 ft 336 kts 194°
2026-04-30 09:21 -34.09811 150.94098 22111 ft 341 kts 194°
2026-04-30 09:21 -34.12095 150.93359 22879 ft 345 kts 194°
2026-04-30 09:21 -34.14417 150.92610 23647 ft 349 kts 194°
2026-04-30 09:21 -34.16770 150.91850 24412 ft 353 kts 194°
2026-04-30 09:22 -34.19157 150.91077 25153 ft 356 kts 194°
2026-04-30 09:22 -34.21578 150.90292 25859 ft 360 kts 194°
2026-04-30 09:22 -34.24027 150.89499 26536 ft 364 kts 194°
2026-04-30 09:22 -34.26481 150.88704 27184 ft 367 kts 194°
2026-04-30 09:23 -34.28965 150.87897 27804 ft 371 kts 194°
2026-04-30 09:23 -34.31464 150.87087 28350 ft 376 kts 194°
2026-04-30 09:23 -34.33998 150.86263 28888 ft 381 kts 194°
2026-04-30 09:23 -34.36592 150.85419 29463 ft 386 kts 194°
2026-04-30 09:24 -34.39160 150.84582 30039 ft 389 kts 194°
2026-04-30 09:24 -34.41816 150.83717 30626 ft 392 kts 194°
2026-04-30 09:24 -34.44434 150.82864 31189 ft 394 kts 194°
2026-04-30 09:24 -34.47082 150.82001 31728 ft 397 kts 193°
2026-04-30 09:25 -34.49744 150.81117 32268 ft 398 kts 195°
2026-04-30 09:25 -34.52362 150.79933 32761 ft 402 kts 203°
2026-04-30 09:25 -34.54808 150.78311 33207 ft 406 kts 211°
2026-04-30 09:25 -34.57059 150.76236 33626 ft 410 kts 220°
2026-04-30 09:26 -34.59026 150.73727 34016 ft 415 kts 229°
2026-04-30 09:26 -34.60768 150.70903 34345 ft 417 kts 232°
2026-04-30 09:26 -34.62479 150.68068 34786 ft 415 kts 232°
2026-04-30 09:26 -34.64185 150.65247 35278 ft 411 kts 232°
2026-04-30 09:27 -34.65842 150.62500 35759 ft 407 kts 233°
2026-04-30 09:27 -34.67511 150.59731 36322 ft 402 kts 233°
2026-04-30 09:27 -34.69145 150.57018 36858 ft 399 kts 233°
2026-04-30 09:27 -34.70774 150.54312 37308 ft 397 kts 233°
2026-04-30 09:28 -34.72393 150.51616 37709 ft 395 kts 234°
2026-04-30 09:28 -34.74009 150.48926 38066 ft 394 kts 234°
2026-04-30 09:28 -34.75614 150.46249 38410 ft 392 kts 234°
2026-04-30 09:28 -34.77215 150.43578 38737 ft 391 kts 234°
2026-04-30 09:29 -34.78811 150.40913 39066 ft 390 kts 234°
2026-04-30 09:29 -34.80403 150.38251 39337 ft 390 kts 235°
2026-04-30 09:29 -34.81988 150.35600 39566 ft 390 kts 235°
2026-04-30 09:29 -34.83575 150.32942 39797 ft 391 kts 236°
2026-04-30 09:30 -34.85167 150.30273 40015 ft 391 kts 236°
2026-04-30 09:30 -34.86778 150.27571 40229 ft 391 kts 236°
2026-04-30 09:30 -34.88364 150.24908 40380 ft 393 kts 236°
2026-04-30 09:30 -34.89984 150.22186 40361 ft 400 kts 236°
2026-04-30 09:31 -34.93269 150.16656 40374 ft 409 kts 236°
2026-04-30 09:31 -34.96640 150.10977 40362 ft 419 kts 236°
2026-04-30 09:32 -35.00090 150.05154 40373 ft 427 kts 236°
2026-04-30 09:32 -35.03567 149.99275 40362 ft 433 kts 236°
2026-04-30 09:33 -35.07117 149.93265 40371 ft 437 kts 236°
2026-04-30 09:33 -35.10664 149.87250 40367 ft 436 kts 236°
2026-04-30 09:34 -35.14181 149.81273 40368 ft 436 kts 236°
2026-04-30 09:34 -35.17720 149.75250 40375 ft 437 kts 236°
2026-04-30 09:35 -35.21256 149.69220 40372 ft 437 kts 236°
2026-04-30 09:35 -35.24783 149.63196 40384 ft 437 kts 236°
2026-04-30 09:36 -35.28316 149.57150 40375 ft 437 kts 236°
2026-04-30 09:36 -35.31838 149.51114 40382 ft 437 kts 236°
2026-04-30 09:37 -35.35347 149.45088 40383 ft 436 kts 236°
2026-04-30 09:37 -35.38864 149.39038 40398 ft 435 kts 236°